Flag for U.S.A. Weather past 2 weeks in Clarksville, Tennessee, U.S.A.

Now
71 °F

Passing clouds.


Feels Like: 76 °F
Forecast: 50 / 72 °F
Wind: 7 mph from North

Location: Outlaw Field

Current Time: Sep 17, 2014 at 2:46:21 PM

Latest Report: Sep 17, 2014 at 1:52 PM


Visibility: 10 mi

Pressure: 30.01 "Hg

Humidity: 57%

Dew point: 55 °F

Location of ClarksvilleLocation

Historic Weather in Clarksville — Graph

°F

Clarksville temperature yesterday

Maximum temperature yesterday: 70 °F (at 1:52 PM)
Minimum temperature yesterday: 54 °F (at 11:52 PM)
Average temperature yesterday: 64 °F

Past Weeks' High & Low Weather Summary

 TemperatureHumidityPressure
High91 °F (Sep 5, 4:52 PM)100% (Sep 17, 8:52 AM)30.31 "Hg (Sep 17, 8:52 AM)
Low48 °F (Sep 17, 6:00 AM)41% (Sep 8, 4:52 PM)29.81 "Hg (Sep 10, 6:52 PM)
Average70 °F80%30.07 "Hg
* Reported Sep 2 12:52 PM — Sep 17 12:52 PM, Clarksville, Weather by CustomWeather, © 2014

Note: Actual official high and low records may vary slightly from our data, if they occured in-between our weather recording intervals... More about our weather records

Advertising

Clarksville weather history for previous 24 hours

 ConditionsComfort  
Time TempWeatherWind HumidityBarometerVisibility
12:52 PM
Sep 17
69 °FSunny.5 mph63%30.03 "Hg10 mi
11:52 AM66 °FPassing clouds.3 mph73%30.04 "Hg10 mi
10:59 AM59 °FFog.No wind90%30.05 "Hg5 mi
9:52 AM55 °FFog.No wind100%30.05 "Hg0 mi
8:52 AM53 °FFog.3 mph100%30.04 "Hg0 mi
7:52 AM52 °FFog.No wind97%30.04 "Hg0 mi
6:52 AM48 °FFog.3 mph96%30.04 "Hg1 mi
6:00 AM48 °FFog.3 mph96%30.05 "Hg1 mi
4:49 AM50 °FFog.3 mph96%30.04 "Hg3 mi
3:52 AM51 °FFog.3 mph96%30.04 "Hg4 mi
2:52 AM52 °FFog.5 mph93%30.06 "Hg5 mi
1:52 AM53 °FFog.3 mph93%30.07 "Hg6 mi
12:52 AM54 °FClear.No wind90%30.07 "Hg8 mi
11:52 PM
Sep 16
54 °FClear.5 mph86%30.08 "Hg8 mi
10:52 PM56 °FClear.5 mph87%30.08 "Hg10 mi
9:52 PM57 °FClear.6 mph87%30.08 "Hg10 mi
8:52 PM57 °FClear.7 mph83%30.07 "Hg10 mi
7:52 PM59 °FClear.6 mph81%30.06 "Hg10 mi
6:52 PM64 °FSunny.5 mph70%30.05 "Hg10 mi
5:52 PM69 °FSunny.3 mph61%30.06 "Hg10 mi
4:52 PM70 °FSunny.8 mph59%30.06 "Hg10 mi
3:52 PM69 °FPartly sunny.8 mph63%30.08 "Hg10 mi
2:52 PM69 °FPassing clouds.8 mph63%30.09 "Hg10 mi
Weather by CustomWeather, © 2014

See weather overviewHow to use our weather pages